Wetbulb
56.30 56.38 56.08 56.28 56.82 57.54 58.01 57.97 57.84 57.93 57.73 57.47 57.65 57.89 57.80 58.08 58.01 54.14 50.41 56.65 55.64 62.86 61.96 55.04 54.41 52.79 50.24 47.18 47.44 44.90 40.45 39.43 41.84 42.61 42.99 44.82 44.53 47.92 48.83 47.18 48.72 49.58 49.28 50.91 52.91
55.81 56.09 56.21 56.20 56.09 56.33 57.19 57.65 57.87 57.92 57.80 57.74 57.80 57.86 57.78 58.03 52.36 50.83 60.22 62.16 63.16 64.11 52.33 52.76 50.65 51.98 45.70 44.43 45.20 42.24 37.58 40.88 45.17 44.22 40.66 43.39 43.29 45.01 46.60 46.09 46.50 48.00 50.13 51.13 51.57
55.85 55.82 56.37 56.59 56.65 56.77 56.97 57.82 57.93 57.83 57.97 58.04 57.95 57.96 57.58 56.76 50.96 50.02 64.50 63.11 62.92 61.74 53.84 53.38 52.21 50.11 42.08 41.69 42.10 39.51 39.47 42.46 44.89 45.01 44.58 43.66 43.85 45.64 44.48 43.50 45.68 45.64 47.70 48.67 49.95
55.00 55.52 55.80 56.30 56.74 56.95 57.50 57.79 57.54 57.73 58.01 58.00 57.90 57.58 57.79 52.93 40.43 50.03 65.17 64.64 64.45 57.51 52.92 51.60 48.65 42.54 39.21 39.24 42.08 40.89 44.38 44.41 45.51 44.60 43.88 43.14 44.71 44.29 44.16 45.53 48.46 47.86 47.78 47.52 47.72
54.75 55.23 55.67 56.11 56.57 56.93 57.23 57.46 57.09 56.64 57.15 57.30 57.37 57.61 54.44 47.19 48.03 53.54 67.00 65.37 59.82 55.24 51.58 49.78 42.93 40.63 38.89 39.89 41.90 38.84 42.41 44.53 46.04 45.17 42.85 45.19 44.01 43.57 44.21 47.45 48.01 49.00 50.00 48.69 47.17
54.23 54.64 55.17 55.61 56.02 56.48 56.72 56.92 56.34 56.57 56.30 56.91 57.32 57.70 50.85 41.25 52.17 52.18 55.26 53.49 53.05 51.24 46.57 47.22 45.34 43.56 41.08 40.26 39.66 42.86 42.60 43.78 44.05 43.73 42.73 43.20 43.07 43.74 46.88 47.77 48.67 48.47 48.41 48.39 47.22
53.94 54.16 54.70 55.31 55.87 56.22 56.70 56.35 55.81 55.69 56.65 57.28 57.53 56.57 50.17 46.66 52.16 52.25 51.44 49.61 50.92 50.80 48.02 48.02 47.01 44.49 42.22 40.64 43.47 43.71 40.15 41.85 41.68 41.20 42.26 43.27 40.79 42.98 46.86 46.88 47.05 48.14 47.54 48.47 48.83
53.67 53.82 54.25 54.92 55.49 56.03 56.28 56.17 55.85 56.31 57.72 57.81 58.39 53.17 46.09 52.71 50.50 50.56 50.77 50.06 50.31 51.34 50.24 49.84 48.41 44.10 41.18 43.09 43.18 39.86 38.72 35.23 40.92 43.16 43.69 42.15 37.23 43.90 45.87 44.98 45.60 46.48 47.17 47.44 47.94
53.98 53.82 53.86 54.49 55.20 55.69 55.73 55.18 56.02 56.65 58.69 58.24 53.56 50.97 44.56 56.26 50.45 50.90 50.88 50.17 50.22 50.31 50.01 52.54 47.48 43.02 43.35 38.32 35.93 36.30 33.24 34.22 38.54 41.15 42.23 40.46 38.42 43.96 45.72 45.98 46.05 46.44 46.18 47.07 47.57
53.69 53.61 53.43 54.04 54.67 55.10 54.10 54.43 57.10 56.98 56.80 56.75 55.00 45.40 48.19 47.30 49.14 52.21 52.23 51.69 49.53 48.51 47.09 46.02 41.92 39.17 37.31 36.65 30.96 32.11 32.29 34.72 34.96 40.00 42.33 37.84 38.93 43.08 45.58 45.33 45.31 45.46 45.76 46.29 46.97
52.99 53.30 53.51 54.06 54.51 54.21 50.29 49.29 47.74 46.19 46.88 44.47 46.71 47.57 46.09 48.21 50.60 49.41 51.58 50.09 48.61 45.56 39.01 41.56 37.90 34.99 37.86 39.11 39.77 37.36 35.41 34.37 37.67 41.44 39.70 38.22 38.09 41.14 43.14 43.30 43.11 43.77 44.92 44.81 47.13
52.33 52.70 53.32 53.88 54.25 53.93 47.94 48.02 49.34 48.42 43.97 48.75 50.03 50.15 49.05 47.96 45.98 49.14 51.01 44.95 44.39 39.64 41.59 38.98 35.44 41.33 42.15 41.00 39.79 38.58 35.93 35.00 39.09 42.67 39.76 38.71 38.39 41.38 43.51 44.40 44.28 44.23 44.11 44.92 47.03
52.21 52.47 53.16 53.88 53.82 50.32 47.23 49.55 51.21 49.21 42.15 48.13 49.74 46.41 45.85 46.83 45.60 46.69 47.70 45.08 42.55 40.14 39.75 36.65 40.59 44.43 43.33 40.53 40.50 37.16 35.71 35.57 36.92 40.10 39.27 38.37 35.64 38.49 43.86 46.54 47.37 47.00 46.64 47.35 48.03
52.03 52.53 53.23 53.28 50.49 48.29 49.09 52.06 50.01 50.23 39.42 44.83 42.81 45.79 47.28 46.46 45.36 50.42 49.25 46.66 43.77 40.97 41.83 38.78 44.04 43.30 39.77 40.35 40.14 34.11 40.99 40.25 39.13 35.63 29.80 38.54 27.16 35.64 39.63 42.90 44.67 44.97 45.32 45.91 47.18
51.82 52.77 53.05 52.43 48.33 48.67 51.63 50.63 49.50 50.64 28.80 45.57 43.85 48.30 46.35 44.15 45.37 46.90 49.89 47.62 42.66 43.04 42.21 39.44 41.58 41.34 39.79 40.88 42.21 38.64 42.41 39.35 38.34 33.93 32.00 33.10 29.56 33.68 39.98 40.14 41.92 44.47 45.95 46.10 46.49
51.68 52.54 52.27 50.18 48.30 51.00 50.86 48.02 51.30 40.71 30.23 40.83 44.91 43.32 42.23 43.59 44.60 46.09 47.09 49.30 48.47 44.06 42.45 41.43 45.70 43.99 42.19 44.34 43.47 43.00 39.44 36.25 32.87 30.70 25.63 31.67 31.64 30.19 37.17 40.81 42.09 44.18 45.17 46.63 46.41
51.23 51.53 49.72 51.25 48.12 49.94 48.79 48.72 38.03 32.68 44.04 40.35 40.08 42.09 40.87 41.00 42.84 44.00 43.44 42.16 39.07 34.53 34.38 39.45 41.52 44.20 45.18 40.52 41.99 39.25 32.78 24.72 23.41 24.36 24.84 33.87 31.24 31.94 40.36 44.22 44.79 44.54 45.24 45.47 45.11
50.46 50.38 50.80 51.73 48.20 49.98 48.41 42.27 32.00 40.43 39.80 44.39 43.45 42.32 40.48 41.65 41.50 42.90 41.33 39.21 42.64 39.40 34.20 31.67 31.83 41.27 43.60 40.32 36.61 34.33 33.46 25.32 21.75 22.42 26.36 34.12 29.38 33.94 44.21 45.57 45.72 46.02 45.39 46.33 45.51
49.54 49.73 52.01 52.68 53.02 49.05 45.43 34.31 34.05 39.63 43.15 42.50 42.72 39.41 39.79 43.29 42.40 41.68 38.93 39.25 41.52 40.34 31.97 31.35 34.04 42.21 43.61 43.29 40.66 35.42 31.45 35.06 30.73 29.44 25.95 29.39 33.71 41.46 43.41 43.64 44.61 44.34 44.89 44.66 45.22
46.90 50.13 48.72 51.83 51.46 49.85 42.37 38.78 39.75 45.22 45.81 43.77 37.11 40.27 36.31 39.74 39.43 38.74 38.85 42.64 42.24 42.95 39.89 36.35 30.18 39.08 42.25 42.82 40.70 37.58 39.74 29.43 28.09 22.79 22.29 27.60 29.51 33.08 39.42 40.79 42.64 42.30 43.71 44.87 45.18
48.91 44.77 48.29 48.40 51.98 45.28 38.36 37.95 42.95 46.17 46.62 42.83 39.68 38.32 39.46 38.22 38.69 37.45 39.56 43.18 44.24 43.48 41.21 37.56 32.76 34.80 38.46 35.36 33.86 34.20 32.26 31.94 30.93 28.71 23.56 23.23 28.07 36.96 38.88 40.71 41.29 41.50 43.62 43.80 43.58
43.89 40.42 51.03 48.25 40.28 36.48 36.42 41.41 45.43 46.13 46.96 44.99 43.16 42.09 39.55 39.96 37.81 38.37 39.34 42.44 45.75 43.62 37.87 37.70 32.35 28.57 33.73 40.28 41.32 37.80 34.52 32.27 23.28 25.37 25.70 23.92 29.20 41.70 39.73 40.06 40.83 39.67 41.49 41.80 40.41
41.90 43.09 50.06 47.54 35.34 34.79 39.60 43.37 45.23 45.24 44.44 43.49 42.24 43.20 41.76 37.94 31.80 39.27 41.47 46.31 46.76 43.38 39.13 38.06 31.31 24.37 28.90 34.01 37.87 35.69 37.15 35.99 32.82 29.14 24.54 24.62 29.55 40.90 40.12 40.84 41.63 40.39 40.21 41.50 41.85
41.29 37.18 39.79 40.47 39.79 37.37 37.50 39.46 41.05 46.46 43.63 44.50 41.86 42.50 39.85 37.72 38.62 36.42 39.04 44.83 45.52 44.72 50.77 42.86 31.97 31.20 29.42 32.11 33.70 33.96 36.95 37.05 32.73 23.43 29.94 31.31 33.46 38.35 39.96 38.96 38.89 39.79 39.65 40.96 41.66
38.02 35.77 37.36 32.53 36.36 37.81 36.78 39.21 39.17 38.90 42.07 41.88 39.39 40.46 37.60 28.57 34.62 35.06 39.40 40.22 42.71 45.36 40.75 37.27 29.89 31.72 33.71 35.46 36.03 35.74 35.60 36.37 33.88 34.88 28.19 33.79 34.38 38.15 40.31 38.28 38.86 41.09 42.19 41.74 41.81
35.95 34.68 37.14 34.90 37.74 37.05 36.56 35.87 37.84 39.40 39.24 37.69 36.11 39.37 37.51 32.97 34.17 33.05 36.39 35.72 36.57 39.05 36.37 36.20 31.04 32.76 32.00 35.81 35.70 33.72 35.99 36.04 35.89 36.22 36.50 37.03 36.13 42.07 39.79 40.89 41.15 42.34 41.91 41.70 41.97
39.38 38.85 37.61 36.05 35.79 34.43 34.61 36.77 38.85 39.28 40.83 42.00 39.97 37.29 37.29 38.78 40.73 40.41 39.80 38.93 37.55 35.13 33.34 31.85 26.23 23.37 25.72 34.06 34.08 27.53 32.58 35.57 35.57 36.33 35.70 32.90 36.93 40.18 40.94 41.58 42.28 41.20 41.40 41.59 41.97
MSLP
1015.93 1015.58 1015.24 1014.92 1014.56 1014.29 1013.97 1013.73 1013.58 1013.54 1013.47 1013.35 1013.18 1013.01 1012.85 1012.55 1012.07 1012.20 1011.34 1009.94 1009.86 1009.71 1009.67 1009.40 1009.31 1009.56 1009.50 1009.74 1009.74 1010.00 1010.92 1010.66 1009.33 1008.93 1008.21 1007.53 1007.42 1006.83 1006.65 1006.63 1006.53 1006.46 1006.57 1006.62 1006.26
1015.93 1015.52 1015.13 1014.83 1014.58 1014.15 1013.83 1013.54 1013.40 1013.26 1013.19 1013.12 1012.95 1012.77 1012.67 1012.51 1012.06 1011.29 1009.56 1009.45 1009.63 1009.75 1009.83 1010.03 1009.99 1009.83 1010.01 1010.12 1010.00 1010.32 1011.05 1010.08 1008.92 1008.40 1008.05 1007.63 1007.36 1007.19 1007.03 1006.94 1006.79 1006.93 1006.90 1006.62 1006.48
1015.95 1015.46 1014.96 1014.67 1014.39 1014.06 1013.66 1013.31 1013.09 1013.02 1012.90 1012.78 1012.72 1012.75 1012.56 1012.40 1011.81 1009.91 1009.08 1009.41 1009.68 1009.76 1009.86 1009.91 1009.99 1010.06 1010.35 1010.16 1010.13 1010.36 1010.26 1009.52 1008.49 1007.99 1007.95 1007.69 1007.41 1007.16 1007.22 1007.20 1007.00 1007.01 1006.93 1006.94 1006.84
1016.08 1015.49 1014.97 1014.50 1014.18 1013.90 1013.54 1013.22 1012.84 1012.64 1012.59 1012.52 1012.48 1012.41 1012.21 1012.02 1011.12 1009.24 1008.97 1009.31 1009.67 1009.87 1009.87 1009.88 1010.03 1010.23 1010.35 1010.38 1010.10 1010.27 1009.54 1009.10 1008.33 1008.01 1007.88 1007.72 1007.46 1007.37 1007.38 1007.27 1006.88 1007.03 1007.11 1006.87 1006.94
1016.19 1015.55 1014.99 1014.51 1014.00 1013.60 1013.33 1013.07 1012.82 1012.49 1012.40 1012.43 1012.45 1012.43 1012.16 1011.43 1010.06 1008.77 1008.89 1009.27 1009.57 1009.75 1009.80 1009.90 1010.00 1010.16 1010.30 1010.32 1010.17 1009.99 1009.48 1008.94 1008.35 1008.14 1008.13 1007.81 1007.67 1007.65 1007.44 1006.99 1006.99 1007.00 1006.89 1006.96 1007.01
1016.18 1015.55 1014.97 1014.42 1013.97 1013.44 1013.12 1012.91 1012.73 1012.45 1012.28 1012.28 1012.31 1012.35 1012.05 1010.63 1008.69 1008.67 1009.12 1009.49 1009.55 1009.69 1009.60 1009.62 1009.71 1009.85 1010.19 1010.25 1010.16 1009.81 1009.57 1009.23 1008.81 1008.38 1008.19 1008.02 1007.86 1007.75 1007.26 1007.03 1007.16 1007.21 1007.07 1006.80 1006.83
1016.07 1015.44 1014.87 1014.34 1013.79 1013.33 1012.91 1012.66 1012.52 1012.34 1012.17 1012.23 1012.31 1012.32 1011.46 1009.70 1008.66 1008.68 1009.00 1008.97 1008.94 1009.12 1009.05 1009.18 1009.30 1009.63 1010.08 1010.16 1009.99 1009.84 1009.88 1009.47 1009.10 1008.76 1008.36 1008.24 1008.31 1008.04 1007.23 1007.74 1007.59 1007.27 1007.06 1006.72 1006.59
1015.85 1015.32 1014.64 1014.19 1013.63 1013.10 1012.67 1012.36 1012.15 1012.08 1012.03 1012.07 1012.11 1011.91 1010.69 1008.91 1008.75 1008.71 1008.80 1008.68 1008.39 1008.45 1008.71 1008.76 1009.00 1009.66 1010.08 1010.25 1010.38 1010.52 1010.55 1010.38 1009.60 1009.12 1008.89 1008.74 1008.85 1008.11 1008.04 1008.21 1008.10 1007.84 1007.67 1007.55 1007.27
1015.50 1015.08 1014.43 1013.89 1013.34 1012.75 1012.24 1011.83 1011.69 1011.94 1012.07 1012.09 1012.07 1011.58 1010.19 1008.84 1008.83 1008.53 1008.56 1008.63 1008.50 1008.50 1008.59 1008.70 1009.20 1010.28 1010.56 1011.05 1011.50 1011.67 1011.49 1011.07 1010.42 1010.11 1009.65 1009.41 1009.56 1008.93 1008.48 1008.64 1008.73 1008.27 1007.89 1007.76 1007.25
1015.19 1014.77 1014.22 1013.59 1013.02 1012.31 1011.58 1011.43 1011.59 1011.90 1012.24 1012.05 1011.80 1011.52 1010.05 1009.12 1008.67 1008.54 1008.38 1008.51 1008.72 1008.95 1009.36 1009.52 1010.43 1011.05 1011.68 1011.80 1012.28 1012.07 1011.85 1011.46 1011.22 1010.89 1010.50 1010.59 1010.63 1010.24 1009.40 1009.40 1009.24 1008.78 1008.22 1007.87 1007.76
1015.23 1014.44 1013.99 1013.42 1012.91 1012.32 1011.34 1011.45 1012.24 1012.04 1011.68 1011.28 1010.97 1010.39 1009.32 1008.85 1008.61 1008.62 1008.46 1008.61 1009.08 1009.64 1010.39 1010.73 1011.47 1011.59 1011.38 1011.46 1011.38 1011.52 1011.73 1011.84 1011.50 1011.22 1011.17 1011.18 1011.34 1010.59 1009.98 1009.92 1009.51 1008.88 1008.39 1008.26 1008.10
1015.25 1014.42 1013.72 1013.20 1012.67 1012.25 1012.11 1012.09 1011.66 1011.66 1011.26 1010.21 1009.98 1009.62 1008.93 1008.65 1008.88 1008.81 1008.69 1009.21 1009.69 1010.43 1010.81 1011.40 1011.48 1010.77 1010.88 1011.12 1011.35 1011.57 1011.98 1012.27 1012.12 1011.71 1011.69 1011.62 1011.63 1010.84 1010.36 1010.19 1009.60 1009.01 1008.77 1008.44 1008.66
1015.19 1014.29 1013.61 1012.93 1012.44 1012.21 1012.32 1011.62 1011.15 1011.14 1011.44 1010.11 1009.31 1008.94 1008.66 1008.76 1008.94 1008.90 1009.08 1009.49 1010.11 1010.69 1011.18 1011.49 1010.98 1010.56 1010.83 1011.16 1011.34 1011.80 1012.19 1012.54 1012.83 1012.58 1012.32 1012.30 1012.24 1011.61 1010.88 1010.53 1010.04 1009.92 1009.74 1009.23 1009.47
1015.00 1014.18 1013.37 1012.67 1012.57 1012.90 1012.23 1011.51 1011.03 1010.99 1011.54 1010.23 1009.20 1008.52 1008.55 1008.72 1009.05 1008.85 1009.06 1009.73 1010.40 1010.96 1011.20 1011.40 1010.88 1010.73 1011.04 1011.22 1011.50 1011.96 1012.18 1012.61 1013.03 1013.46 1013.92 1013.45 1013.97 1012.39 1011.79 1011.49 1011.14 1010.84 1010.54 1010.48 1010.44
1014.93 1014.14 1013.52 1012.64 1012.87 1012.73 1012.20 1011.40 1011.08 1011.18 1011.23 1010.04 1009.07 1008.47 1008.67 1009.19 1009.28 1009.03 1009.17 1009.63 1010.50 1011.07 1011.68 1011.73 1011.24 1010.98 1011.01 1011.07 1011.40 1011.97 1012.21 1013.06 1013.59 1014.30 1014.79 1014.76 1014.93 1012.81 1012.13 1011.85 1011.61 1011.62 1011.54 1011.31 1011.16
1014.66 1014.06 1013.64 1013.15 1013.03 1012.08 1011.59 1011.18 1011.39 1012.05 1011.06 1010.06 1009.29 1009.08 1009.35 1009.50 1009.68 1009.53 1009.75 1010.08 1010.60 1011.31 1011.89 1012.03 1011.28 1011.25 1011.16 1011.25 1011.64 1012.29 1013.07 1014.18 1015.26 1015.98 1016.18 1015.30 1015.22 1013.62 1012.38 1011.69 1011.59 1011.74 1011.73 1011.53 1011.48
1014.11 1013.52 1013.41 1012.86 1012.48 1011.80 1011.51 1011.91 1012.54 1012.04 1011.27 1010.84 1010.26 1010.10 1010.08 1010.12 1010.17 1010.24 1010.78 1011.29 1011.98 1012.50 1013.37 1012.83 1012.23 1011.84 1011.73 1011.99 1012.33 1013.16 1014.88 1016.20 1017.06 1017.52 1016.99 1015.76 1015.44 1013.08 1011.75 1011.28 1011.14 1011.46 1011.53 1011.47 1011.51
1013.70 1013.06 1012.78 1012.04 1011.90 1011.82 1012.22 1013.09 1013.14 1012.69 1011.99 1011.39 1011.05 1010.70 1010.99 1011.12 1011.20 1011.29 1011.66 1012.47 1012.77 1013.36 1014.31 1014.25 1013.32 1012.77 1012.73 1012.86 1013.24 1013.97 1015.34 1017.12 1018.05 1018.53 1017.81 1016.28 1014.54 1012.24 1011.33 1011.06 1011.01 1011.05 1011.13 1011.20 1011.29
1013.44 1012.94 1012.76 1011.81 1011.73 1012.05 1013.02 1013.90 1013.82 1013.00 1012.49 1012.17 1011.89 1012.18 1012.40 1012.19 1012.27 1012.37 1012.79 1013.35 1013.55 1013.88 1014.68 1014.91 1014.41 1013.62 1013.41 1013.41 1013.76 1014.52 1015.61 1016.54 1017.84 1018.70 1018.59 1016.58 1014.32 1012.22 1011.53 1011.22 1011.21 1011.25 1011.37 1011.36 1011.25
1014.58 1014.08 1013.41 1012.32 1011.96 1012.51 1013.43 1014.20 1013.65 1012.86 1012.50 1012.60 1013.20 1013.41 1013.77 1013.76 1013.67 1013.69 1013.69 1013.92 1014.09 1014.31 1014.64 1015.61 1015.66 1014.70 1014.27 1013.99 1013.88 1014.45 1015.49 1017.00 1018.67 1019.61 1019.02 1016.81 1014.92 1012.79 1012.01 1011.67 1011.59 1011.61 1011.73 1011.71 1011.68
1015.07 1014.51 1012.97 1012.45 1012.40 1013.49 1014.86 1014.60 1013.62 1012.80 1012.53 1012.97 1013.51 1014.04 1014.57 1014.87 1014.77 1014.71 1014.62 1014.45 1014.34 1014.74 1015.13 1015.82 1016.67 1016.22 1015.59 1015.26 1014.98 1015.39 1016.17 1017.56 1018.92 1019.48 1019.04 1017.57 1014.40 1011.99 1011.61 1011.62 1011.84 1011.90 1011.94 1011.60 1011.85
1016.18 1015.68 1013.28 1012.61 1014.09 1015.65 1015.75 1014.97 1013.89 1013.19 1012.96 1013.25 1013.83 1014.43 1015.00 1015.26 1015.36 1015.25 1015.04 1014.81 1014.84 1015.12 1015.81 1016.51 1017.37 1017.64 1016.74 1015.35 1015.37 1015.78 1016.60 1017.86 1019.56 1019.64 1019.21 1018.12 1012.94 1011.56 1011.41 1011.83 1011.97 1011.90 1011.84 1011.80 1012.13
1018.08 1016.93 1014.15 1013.71 1016.31 1017.17 1016.33 1015.37 1014.60 1013.97 1014.03 1014.00 1014.60 1015.02 1015.52 1015.99 1016.29 1016.06 1015.75 1015.63 1015.72 1016.10 1016.64 1016.97 1017.92 1018.29 1017.60 1016.55 1015.93 1016.12 1016.64 1017.13 1018.02 1018.73 1018.32 1017.91 1012.82 1011.95 1011.66 1011.35 1011.15 1011.45 1011.90 1012.09 1012.35
1018.85 1018.66 1017.63 1017.43 1018.34 1018.27 1017.78 1016.65 1015.77 1014.98 1014.91 1015.01 1015.57 1015.74 1016.26 1016.71 1016.92 1016.99 1016.80 1016.32 1016.43 1016.64 1016.88 1017.31 1018.39 1018.86 1018.35 1017.71 1017.25 1016.88 1016.75 1016.98 1017.68 1017.72 1017.13 1014.82 1013.51 1011.95 1012.12 1011.72 1011.54 1011.65 1012.12 1012.29 1012.46
1020.20 1021.32 1021.03 1020.48 1019.73 1019.45 1018.65 1017.84 1017.05 1016.38 1016.02 1015.96 1016.53 1017.01 1017.36 1017.94 1018.03 1017.97 1017.93 1017.58 1017.12 1016.92 1017.39 1018.22 1019.05 1019.11 1018.63 1018.14 1017.75 1016.89 1016.43 1016.57 1016.90 1016.18 1016.72 1013.15 1012.77 1010.69 1011.44 1011.35 1011.38 1011.74 1011.82 1012.06 1012.04
1021.89 1022.31 1021.84 1021.45 1020.73 1019.89 1019.48 1019.16 1018.49 1017.74 1017.37 1017.31 1017.44 1017.53 1017.80 1018.31 1018.74 1019.08 1018.97 1018.98 1018.57 1017.76 1018.24 1019.07 1019.19 1019.36 1018.84 1018.18 1017.41 1016.42 1016.17 1015.67 1015.71 1015.43 1014.97 1014.25 1011.70 1011.66 1011.08 1011.31 1011.66 1011.71 1011.65 1011.56 1011.24
1022.79 1022.68 1022.52 1022.35 1021.46 1020.81 1020.48 1019.78 1019.24 1018.76 1018.61 1018.26 1018.17 1018.14 1018.49 1018.69 1018.81 1018.75 1018.71 1018.50 1018.66 1019.10 1019.37 1020.04 1020.19 1020.32 1019.19 1018.48 1017.53 1016.50 1015.56 1015.55 1015.65 1015.39 1015.34 1014.60 1014.12 1012.72 1012.47 1012.18 1011.86 1011.54 1011.41 1011.10 1010.81
Wind_Speed
14 14 13 13 13 12 10 9 8 7 6 6 7 8 8 9 9 2 4 7 3 1 3 5 2 3 3 3 1 3 4 4 4 5 2 4 5 5 3 3 4 3 3 5 5
16 15 14 14 14 13 11 9 7 6 6 6 7 8 8 8 2 4 8 6 2 1 3 5 3 6 4 2 2 5 4 8 5 5 1 3 1 2 4 6 2 1 1 7 6
17 16 16 15 14 13 12 9 7 5 6 7 8 7 7 5 2 4 4 6 4 1 2 2 1 2 0 0 2 3 5 5 5 3 2 3 2 1 1 3 3 4 7 3 2
18 17 17 16 15 12 11 9 7 5 5 6 6 6 8 2 2 2 7 7 5 4 2 1 3 2 1 2 2 2 7 5 6 1 1 3 1 3 2 6 5 5 4 4 3
18 18 17 16 15 14 11 9 7 4 5 5 5 5 3 2 5 5 6 4 3 1 1 1 3 2 1 2 4 3 3 4 4 5 4 3 3 4 6 9 6 6 8 6 6
19 18 18 17 15 14 12 9 6 4 3 4 3 3 1 3 4 2 5 4 5 3 3 4 1 3 3 2 2 3 3 5 6 6 4 5 3 4 9 4 8 5 8 7 7
20 20 18 17 16 14 13 10 7 6 4 4 3 3 1 6 2 3 4 3 4 4 1 3 3 2 3 3 3 3 4 6 2 3 3 4 0 7 8 6 9 10 7 8 9
22 20 20 18 16 15 14 11 9 7 6 4 3 1 3 3 4 0 3 4 3 5 2 2 4 3 2 2 7 5 5 4 6 8 5 4 7 7 7 6 10 9 9 8 11
23 21 21 19 17 17 15 13 9 5 2 4 0 1 3 9 2 3 3 1 4 2 3 2 4 2 5 4 6 7 1 1 9 6 5 4 6 7 8 8 10 9 9 9 9
25 22 21 20 18 18 19 4 10 9 0 2 2 3 3 3 2 1 2 2 1 3 7 6 6 3 4 5 4 2 1 3 3 6 7 3 6 10 11 7 11 10 10 9 9
26 24 21 19 17 15 10 3 6 4 1 3 3 2 2 1 2 2 3 2 3 6 2 4 5 3 5 6 5 2 1 1 4 2 4 4 6 11 9 6 10 10 9 6 5
26 25 22 18 17 12 2 4 4 5 6 4 4 4 5 3 2 2 3 3 5 2 2 7 2 5 3 1 2 2 2 2 5 5 3 6 8 6 6 7 7 6 4 5 6
24 23 21 18 16 2 3 4 1 5 3 7 4 2 2 3 2 4 3 1 3 3 2 4 5 4 5 3 5 1 4 2 6 4 3 5 6 8 4 7 9 10 6 9 8
24 22 20 19 4 3 3 7 6 4 5 4 1 3 2 3 1 3 2 4 3 1 5 3 5 2 1 1 4 1 4 1 4 5 2 5 6 7 3 5 6 8 9 8 9
25 21 17 7 3 3 6 8 3 6 4 2 2 2 3 5 2 2 2 3 2 2 5 6 4 4 3 2 2 4 3 4 2 2 3 4 4 9 2 1 3 6 6 7 7
24 18 11 2 2 4 7 4 5 6 2 1 2 1 2 2 2 2 3 4 0 3 4 5 4 3 1 3 4 3 5 7 5 4 2 5 6 7 4 5 2 2 2 5 6
27 19 4 0 2 4 4 5 6 5 4 7 2 3 2 2 1 1 3 5 2 5 7 7 5 2 7 4 5 8 7 5 5 4 6 4 1 10 7 6 7 8 7 5 4
28 15 4 4 1 4 4 6 8 2 3 4 5 3 4 7 4 5 3 2 5 5 3 3 7 4 6 2 3 2 6 7 4 3 5 6 7 8 7 4 2 4 5 4 5
19 3 3 3 2 3 7 7 2 2 3 6 5 6 7 6 4 5 4 2 2 2 2 1 5 4 2 2 1 1 1 3 2 1 2 6 8 6 3 6 4 7 2 4 4
3 4 5 8 3 6 7 2 1 2 1 5 4 3 5 6 6 6 4 3 2 2 3 2 5 4 4 4 2 3 3 3 4 2 5 6 6 7 7 6 6 3 4 7 6
4 5 5 6 4 7 5 2 1 3 1 3 2 4 3 3 1 3 4 3 2 2 3 4 4 6 3 2 5 4 3 4 2 5 5 3 8 7 10 9 8 7 7 9 6
3 4 5 4 7 2 2 4 5 3 5 4 5 3 2 1 3 2 0 1 4 2 4 2 4 4 9 10 4 4 4 6 6 6 4 3 14 6 4 6 9 9 11 2 3
3 3 5 5 4 4 6 5 6 6 5 3 3 4 3 3 2 2 5 5 9 5 3 1 2 5 10 7 3 3 4 5 4 3 6 6 11 4 7 11 11 9 3 1 4
3 4 7 7 2 3 5 4 5 5 4 5 4 6 6 5 3 4 3 3 6 1 6 4 3 8 11 10 4 12 15 8 6 4 10 20 23 20 15 14 10 5 2 5 6
5 1 2 4 4 4 2 5 5 6 4 8 4 4 2 2 5 2 3 6 5 6 2 2 6 5 7 7 8 17 19 17 16 21 11 31 26 25 17 11 7 6 5 7 9
4 3 5 1 3 3 6 6 5 7 6 3 1 4 3 4 6 3 2 3 7 5 2 1 7 4 14 13 16 20 18 20 19 19 19 23 34 15 3 2 4 6 8 12 12
3 2 4 4 4 3 2 4 4 5 3 4 3 3 4 3 6 10 9 8 6 3 2 2 0 3 6 3 11 7 5 4 3 4 5 9 15 8 9 10 12 10 11 14 13
Wind_Direction
1 356 349 342 340 337 327 314 305 300 295 297 294 287 297 308 309 144 244 219 137 31 333 316 37 8 51 5 352 104 70 241 261 166 206 319 38 322 283 48 45 57 87 292 344
358 349 345 343 340 334 330 316 301 290 283 276 275 288 301 314 298 257 243 169 160 6 31 41 42 11 20 318 351 100 136 225 228 158 127 289 351 283 22 356 354 159 351 354 20
356 349 341 340 338 339 333 325 304 278 259 256 264 283 300 313 266 256 174 163 152 128 80 73 59 69 105 23 208 164 200 223 262 244 181 244 274 268 83 330 237 292 297 7 46
354 348 342 339 337 336 331 331 321 284 259 262 284 303 314 269 149 281 167 172 165 170 344 63 49 108 128 212 298 248 245 218 276 147 158 209 303 321 239 234 252 263 242 295 178
354 347 341 338 335 333 331 332 332 298 267 265 276 303 302 41 260 239 172 155 154 116 255 195 68 104 107 291 335 184 287 299 285 269 248 200 198 229 261 260 285 288 298 264 239
352 347 342 338 335 329 326 321 320 317 237 249 273 320 28 80 240 191 157 163 217 198 148 154 160 208 130 250 165 272 254 278 283 258 248 194 224 128 269 285 302 301 275 259 221
352 346 343 338 333 327 321 311 302 276 225 213 223 234 91 217 239 185 171 232 175 214 171 184 167 90 143 305 287 273 322 335 9 345 318 177 149 216 255 16 308 304 270 253 238
349 346 341 339 333 325 316 301 281 250 231 208 216 229 247 257 282 229 159 282 337 194 224 201 102 118 163 295 14 29 53 26 293 11 323 106 275 285 11 5 316 309 308 310 292
344 345 341 338 333 324 314 295 266 224 221 178 245 47 300 317 247 260 197 284 319 358 336 286 75 73 24 74 15 6 84 319 323 27 354 54 285 293 342 349 312 302 296 286 286
340 342 339 336 334 327 323 247 120 109 265 231 278 40 305 223 250 242 295 260 312 0 8 41 46 49 41 73 189 229 77 295 275 335 3 359 274 305 286 287 272 280 288 292 295
341 338 336 333 331 330 347 82 21 350 124 215 243 239 222 241 65 344 308 75 40 52 40 5 51 254 241 189 183 163 127 314 282 301 341 241 266 262 271 274 273 256 251 278 348
339 336 333 328 324 323 331 74 193 199 323 256 236 268 257 170 82 279 67 65 51 32 17 15 276 245 224 251 212 79 106 313 294 302 309 329 305 305 343 342 320 298 354 97 63
339 333 329 325 320 3 356 251 58 86 92 301 230 189 229 114 201 245 90 96 82 33 29 165 257 336 118 59 76 70 140 243 227 304 325 331 341 332 355 1 31 34 31 50 68
338 333 329 323 51 311 310 310 349 128 62 285 267 273 128 117 310 225 148 127 41 12 336 235 304 99 71 130 140 200 202 206 338 40 273 47 283 304 347 20 24 27 42 53 59
338 334 333 355 159 72 298 315 285 56 67 198 232 297 58 124 204 292 84 43 68 291 74 269 306 353 339 218 165 215 19 3 323 262 29 348 83 270 283 237 332 13 39 42 43
335 334 330 313 24 256 311 347 52 50 61 308 147 291 135 165 204 354 47 44 39 50 7 253 294 5 303 45 51 53 21 38 47 79 6 217 133 275 225 183 175 119 63 86 85
333 328 283 124 245 316 352 45 46 83 314 337 342 30 269 161 195 202 86 20 57 16 2 342 347 2 34 19 2 61 49 339 350 7 223 239 96 240 242 227 175 168 162 130 91
328 323 221 225 354 359 52 53 68 25 342 350 339 335 63 14 57 8 73 71 20 74 72 57 335 20 332 23 254 9 137 153 258 234 273 329 254 264 211 183 145 179 158 138 136
321 336 341 287 133 66 72 55 184 14 313 343 355 42 3 3 61 41 25 142 33 60 128 95 281 327 49 330 60 233 248 200 149 19 64 237 290 324 237 287 206 205 196 251 244
24 1 334 314 49 60 73 152 92 311 358 63 67 29 32 359 37 30 359 341 75 28 127 164 320 284 302 348 319 162 174 22 6 275 259 277 268 237 205 232 233 246 242 276 261
32 47 267 337 58 46 104 243 189 288 88 96 85 47 55 29 343 353 341 30 55 28 34 165 139 284 342 236 225 332 333 56 156 155 214 273 254 220 211 202 213 247 252 263 254
25 50 314 13 50 16 68 309 287 191 32 49 94 89 105 7 346 339 301 72 30 23 358 346 157 253 240 262 241 157 227 145 130 271 228 185 263 253 210 196 208 231 255 229 114
50 279 327 63 72 348 319 327 36 20 15 51 72 68 31 41 26 331 350 59 50 56 15 266 299 334 337 345 32 134 197 174 165 107 203 241 268 314 321 316 319 326 128 223 292
55 19 335 36 41 77 3 335 2 10 49 40 51 71 42 19 38 304 327 316 350 250 283 136 186 195 251 234 240 285 280 267 201 219 282 253 283 271 275 274 283 251 273 287 281
28 15 179 338 349 356 350 341 1 0 23 25 61 96 102 70 332 332 342 327 312 286 106 132 233 238 264 279 285 277 274 272 261 262 228 276 266 275 270 249 204 220 252 259 268
75 38 356 317 299 6 10 7 11 330 8 1 54 304 160 155 167 286 269 217 235 315 76 2 273 257 281 268 260 270 272 271 272 278 278 279 274 294 190 52 285 280 282 282 276
329 8 105 311 348 64 13 312 354 331 84 59 347 81 91 182 217 229 225 248 235 265 318 243 116 14 273 0 300 292 216 175 296 250 307 310 324 357 340 320 311 291 277 275 265